Wind_Speed
11 10 9 8 7 6 5 4 3 3 3 2 3 4 5 6 6 7 6 5 5 4 4 5 5 5 5 5 5 5 5 5 5 5 5 5 5 5 5 5 6 7 7 8
14 13 12 10 9 8 7 6 5 6 5 4 4 4 5 5 6 7 7 6 5 5 5 6 5 5 6 7 6 6 5 5 5 5 5 6 5 5 6 5 6 7 8 9
16 16 14 12 10 10 9 8 8 7 6 6 6 6 6 6 6 6 7 7 7 7 6 7 6 6 6 7 7 7 6 6 6 6 6 6 6 6 6 6 6 6 8 9
19 18 16 14 13 11 11 11 10 9 7 7 7 7 8 7 7 7 7 7 7 7 7 8 8 8 8 8 9 9 8 8 7 6 6 7 7 7 7 7 7 7 8 8
21 20 18 17 15 13 13 12 11 10 9 8 9 8 8 8 7 6 6 7 8 7 8 8 9 9 9 9 10 9 10 9 8 8 7 7 8 8 8 8 9 9 9 9
23 22 20 19 17 16 14 13 12 11 10 10 10 8 8 8 7 6 7 8 9 9 9 9 9 9 10 10 11 11 10 10 9 9 9 9 9 9 9 9 10 11 11 11
24 23 22 21 19 18 16 13 12 12 12 12 11 10 9 8 7 7 8 9 10 10 10 10 10 10 11 11 12 11 11 11 10 10 10 11 10 10 10 10 11 12 12 12
24 24 23 22 21 20 18 16 14 13 13 13 14 12 11 10 10 10 10 11 11 11 11 11 11 11 11 12 12 12 12 11 11 11 12 12 12 12 12 12 13 13 13 13
24 24 24 23 22 22 20 19 17 16 16 15 15 14 13 12 12 12 12 12 12 12 12 12 12 12 11 12 12 13 12 12 12 13 13 13 13 14 14 15 15 15 15 15
24 24 25 24 23 23 22 21 20 18 18 17 17 16 15 14 14 14 14 14 14 13 14 14 13 13 13 13 14 14 14 13 14 14 15 15 15 15 15 16 16 16 17 17
25 24 24 25 24 23 24 23 22 21 20 18 18 18 18 17 16 16 16 16 16 16 16 16 15 15 15 15 16 16 14 14 15 15 15 15 16 16 16 18 19 19 19 18
24 24 24 25 25 25 25 24 24 23 23 21 20 20 20 19 18 18 18 18 18 18 18 18 17 17 17 17 17 17 16 15 16 16 17 17 18 17 18 19 20 20 20 20
24 25 24 23 25 26 25 25 25 24 24 23 22 22 22 21 20 19 19 19 19 20 20 20 19 18 18 18 18 18 18 18 18 18 18 19 20 20 20 21 21 21 21 22
26 26 24 22 22 24 24 25 26 25 24 25 24 23 23 23 21 21 20 20 20 21 20 20 20 19 19 19 19 20 20 21 21 21 21 21 22 22 23 23 23 23 23 23
28 28 27 26 25 26 25 26 27 27 26 25 24 24 23 23 22 22 22 22 22 22 22 22 22 21 21 21 21 21 22 23 23 23 24 24 25 25 25 25 25 24 24 25
29 29 29 28 28 28 27 28 28 28 27 26 25 24 24 24 24 24 24 24 24 24 24 24 23 22 22 22 22 22 24 24 25 25 25 25 26 26 27 27 27 27 27 26
30 30 29 28 29 29 30 29 28 28 28 27 26 26 26 26 26 26 26 26 26 25 25 26 26 25 24 24 24 25 26 27 27 27 27 27 28 28 28 28 29 29 29 29
30 31 31 29 30 31 29 29 29 29 29 29 29 29 28 28 28 28 28 28 28 27 28 28 28 27 27 27 27 27 28 29 29 29 29 28 29 29 29 30 31 31 31 31
31 31 31 31 31 31 30 30 29 29 29 29 30 30 29 29 30 30 30 30 29 29 30 30 30 30 30 30 30 30 30 30 30 29 30 30 30 29 29 29 30 31 31 31
31 31 31 31 31 31 31 31 29 30 31 30 31 31 32 32 32 32 32 32 32 32 32 32 32 32 32 32 32 32 32 31 31 31 31 31 31 30 29 30 30 30 30 30
31 31 31 31 32 31 32 31 30 31 32 32 33 33 33 33 33 33 33 33 34 34 34 33 33 34 34 34 34 34 35 34 33 32 32 32 32 31 31 30 30 30 30 30
31 31 32 31 31 32 32 32 32 33 33 33 34 33 34 34 33 33 33 33 33 34 34 34 35 35 36 36 35 35 35 35 34 33 33 34 33 33 32 32 32 31 31 30
30 31 31 31 32 32 32 33 33 33 33 33 34 34 34 34 34 34 33 32 33 34 34 34 35 35 36 35 34 34 35 35 35 35 35 35 35 34 34 33 33 32 31 31
31 31 31 32 32 32 32 33 33 33 33 34 34 34 34 34 34 35 34 33 33 34 34 34 35 35 34 34 34 34 34 35 35 35 36 36 35 35 35 34 34 33 32 32
30 30 31 32 33 34 34 34 34 34 35 35 35 35 35 35 34 34 35 35 34 34 34 33 33 34 34 35 35 35 35 36 36 36 36 36 36 36 35 35 34 34 34 33
30 30 30 31 32 33 33 34 35 35 35 34 34 35 35 35 34 34 34 34 34 33 33 34 34 35 35 36 36 36 36 36 37 37 37 36 36 36 36 35 35 35 34 34
Wind_Direction
209 210 209 213 218 225 233 244 256 273 279 290 321 335 344 354 356 358 352 345 344 350 356 348 338 342 346 338 332 328 330 332 331 332 337 330 322 317 308 294 290 286 288 290
216 219 221 226 235 241 248 256 266 272 272 271 288 308 319 328 335 343 346 340 330 328 331 334 335 333 333 329 329 326 323 322 322 326 329 328 319 313 315 312 304 301 293 290
220 225 227 232 238 244 253 255 261 270 279 287 296 308 307 316 320 329 336 333 323 323 323 326 325 322 323 326 328 325 319 315 309 314 318 318 318 316 316 316 313 307 307 300
225 229 230 233 238 246 253 257 262 269 276 286 288 296 299 304 313 319 325 327 319 315 321 323 324 324 319 321 322 324 319 318 316 314 314 314 313 314 310 312 312 310 312 308
228 230 232 234 239 244 248 256 260 264 271 275 279 286 292 298 307 310 311 317 322 316 317 318 319 321 322 323 321 321 318 316 315 312 308 309 310 312 309 308 311 313 312 309
230 232 234 236 239 243 249 256 263 267 271 271 272 276 288 291 301 305 305 309 312 313 311 312 314 317 319 319 316 315 314 314 310 305 301 303 306 308 309 308 309 310 309 308
233 236 236 236 239 243 246 252 264 269 270 270 271 271 277 280 284 290 296 303 305 304 308 309 309 309 312 312 312 311 311 308 304 298 297 297 300 302 303 307 309 308 306 305
235 239 240 238 238 243 246 246 249 256 265 273 275 272 275 278 280 281 286 293 294 294 298 299 302 302 304 306 308 310 309 307 303 299 297 295 295 297 299 302 306 306 306 304
235 238 242 240 239 241 245 245 248 256 263 266 269 273 277 276 279 282 283 285 288 289 293 295 295 295 299 303 304 307 307 303 298 296 295 296 295 295 298 300 301 302 303 302
235 238 242 243 241 242 244 246 249 252 259 265 273 277 277 273 278 280 280 280 283 285 290 292 292 291 292 296 298 302 302 303 300 297 295 296 296 293 298 300 300 300 301 301
236 238 242 243 241 243 245 246 249 254 258 262 271 276 273 272 274 276 277 278 281 282 286 287 289 287 289 291 293 294 296 299 298 298 298 298 296 294 297 300 300 299 299 298
237 238 241 245 245 245 247 249 251 255 260 261 266 274 272 273 273 273 274 275 277 280 283 285 287 285 285 288 290 291 291 294 296 298 299 298 297 294 296 296 296 296 295 295
238 239 242 247 248 248 249 250 252 255 260 263 265 272 273 273 273 273 273 274 274 277 281 282 284 283 282 285 287 288 289 291 293 295 297 296 293 295 295 294 293 293 294 293
240 242 241 244 247 251 253 253 253 256 258 263 264 267 270 272 272 271 271 271 272 274 277 279 280 281 281 282 284 285 287 290 291 292 294 295 294 293 293 293 291 290 291 291
242 243 244 245 249 252 255 256 254 254 256 260 264 266 267 268 269 269 269 270 272 273 273 275 276 276 279 280 282 283 285 287 288 290 292 294 294 293 291 290 288 289 290 291
243 245 246 248 251 251 254 255 255 255 257 261 263 265 265 266 266 268 270 270 273 275 274 273 274 274 277 279 282 284 284 285 288 290 291 292 293 292 291 289 287 288 288 289
244 245 247 249 252 254 256 258 259 258 259 261 264 265 266 266 266 267 268 269 270 271 272 272 272 273 276 279 281 283 284 286 288 290 291 292 292 292 291 289 288 287 287 286
245 246 249 251 253 255 257 257 257 259 261 262 263 265 267 267 266 266 267 268 268 269 269 269 271 271 274 278 279 282 283 285 287 288 289 289 289 289 289 288 287 286 286 285
245 246 248 250 253 258 259 258 258 261 263 264 266 266 266 267 266 266 265 265 266 267 268 269 270 271 273 275 277 278 280 282 286 287 288 289 289 288 288 288 289 288 287 285
247 246 248 250 252 255 258 259 260 262 265 265 266 268 268 266 265 265 265 266 266 267 268 270 271 271 272 274 276 277 279 281 284 286 286 288 289 289 288 288 289 289 288 287
247 248 248 251 254 256 258 261 263 263 265 265 266 267 267 267 266 266 266 267 267 267 268 270 270 270 271 272 274 277 278 281 283 283 285 286 287 288 287 287 288 288 288 287
247 249 250 251 253 256 260 261 261 263 265 266 266 266 266 267 268 268 268 267 266 267 269 270 270 270 270 271 273 276 278 281 283 282 283 285 286 286 286 286 288 288 287 287
247 248 250 251 252 256 259 261 262 263 264 265 267 267 267 268 269 269 268 267 267 267 268 269 269 270 271 272 274 276 278 280 282 281 283 284 285 285 285 285 286 286 285 285
249 248 250 252 253 255 258 260 262 263 265 267 268 267 267 267 268 268 268 269 269 267 268 268 269 270 271 272 274 276 278 279 281 282 282 283 283 283 283 283 284 284 283 282
252 253 255 256 256 257 258 260 263 264 266 268 269 268 268 268 268 268 268 269 269 269 269 269 269 270 271 272 274 276 277 279 280 282 282 281 281 281 281 282 283 283 283 282
253 255 258 260 261 262 262 263 264 265 266 269 269 268 267 268 270 270 270 269 268 269 268 268 269 270 271 273 274 276 276 278 280 281 281 280 280 280 281 282 282 281 281 282
Height
5924 5926 5928 5929 5930 5931 5931 5932 5932 5932 5930 5930 5929 5928 5927 5926 5925 5923 5922 5920 5919 5918 5916 5915 5914 5913 5912 5911 5910 5908 5907 5906 5904 5903 5902 5901 5900 5899 5898 5897 5896 5896 5895 5894
5922 5924 5925 5926 5927 5929 5929 5930 5931 5930 5929 5929 5928 5928 5927 5925 5925 5923 5922 5920 5919 5918 5917 5915 5914 5913 5912 5910 5909 5908 5907 5905 5904 5903 5902 5901 5899 5898 5897 5896 5895 5894 5893 5892
5919 5922 5922 5924 5925 5926 5927 5928 5928 5928 5927 5927 5927 5927 5926 5925 5924 5923 5921 5920 5919 5917 5916 5915 5913 5912 5911 5910 5908 5907 5906 5904 5903 5902 5901 5900 5899 5897 5896 5895 5894 5893 5892 5890
5916 5918 5920 5921 5923 5924 5925 5925 5925 5925 5926 5927 5926 5927 5925 5924 5922 5922 5920 5919 5918 5917 5916 5914 5913 5911 5910 5909 5907 5906 5904 5903 5902 5901 5900 5899 5898 5896 5895 5894 5893 5891 5890 5888
5912 5914 5916 5918 5920 5921 5922 5922 5922 5923 5923 5924 5924 5924 5925 5922 5921 5920 5919 5918 5917 5916 5914 5913 5912 5910 5909 5907 5905 5904 5903 5901 5900 5899 5898 5897 5896 5895 5894 5892 5891 5890 5888 5887
5909 5910 5912 5914 5916 5917 5918 5919 5920 5920 5922 5923 5922 5922 5923 5921 5920 5919 5918 5917 5916 5914 5913 5912 5910 5909 5907 5906 5904 5902 5901 5899 5898 5897 5896 5895 5894 5893 5892 5891 5889 5888 5887 5885
5905 5906 5908 5910 5912 5913 5915 5918 5920 5920 5920 5920 5920 5919 5920 5919 5918 5917 5916 5915 5914 5912 5911 5910 5908 5907 5905 5904 5902 5900 5899 5897 5896 5895 5894 5893 5892 5891 5890 5889 5887 5886 5884 5883
5901 5903 5904 5906 5908 5910 5911 5914 5916 5918 5919 5918 5916 5916 5917 5916 5915 5914 5913 5912 5911 5910 5909 5908 5906 5905 5903 5902 5900 5898 5896 5895 5893 5892 5891 5890 5889 5888 5887 5886 5885 5883 5882 5880
5896 5899 5899 5901 5903 5905 5907 5909 5911 5913 5913 5914 5913 5912 5912 5912 5911 5910 5910 5909 5908 5907 5906 5905 5904 5902 5901 5899 5898 5896 5894 5892 5891 5889 5888 5887 5886 5885 5884 5883 5882 5880 5879 5878
5890 5893 5895 5896 5899 5900 5902 5904 5906 5907 5908 5909 5910 5909 5909 5908 5907 5907 5906 5905 5904 5904 5903 5902 5900 5899 5898 5897 5895 5893 5892 5890 5888 5887 5886 5884 5883 5882 5881 5880 5878 5877 5875 5874
5884 5888 5890 5891 5893 5896 5897 5899 5900 5902 5903 5904 5906 5908 5904 5903 5903 5902 5902 5901 5900 5900 5899 5898 5897 5896 5894 5893 5892 5890 5888 5887 5885 5884 5883 5881 5880 5878 5877 5876 5874 5873 5871 5870
5879 5882 5884 5886 5888 5889 5891 5893 5895 5897 5897 5898 5899 5903 5898 5897 5898 5897 5897 5896 5896 5895 5895 5894 5893 5892 5890 5889 5888 5886 5885 5883 5882 5880 5879 5877 5876 5874 5873 5871 5870 5868 5867 5865
5873 5876 5879 5881 5883 5883 5884 5886 5888 5890 5891 5892 5894 5897 5892 5892 5892 5892 5891 5891 5891 5890 5890 5889 5888 5887 5886 5885 5883 5882 5881 5879 5878 5876 5874 5872 5870 5869 5868 5866 5865 5863 5861 5859
5866 5869 5873 5877 5877 5877 5878 5880 5881 5883 5885 5885 5887 5888 5886 5885 5885 5886 5886 5885 5885 5885 5884 5884 5883 5882 5881 5880 5878 5877 5876 5874 5873 5871 5869 5867 5866 5864 5863 5861 5859 5857 5855 5854
5859 5862 5865 5868 5869 5870 5871 5873 5874 5875 5877 5879 5880 5880 5880 5879 5879 5879 5879 5879 5879 5878 5878 5878 5877 5876 5875 5874 5873 5871 5870 5869 5867 5865 5864 5862 5860 5858 5856 5854 5853 5851 5849 5847
5852 5855 5857 5860 5862 5863 5864 5865 5867 5868 5869 5870 5871 5872 5872 5872 5872 5872 5872 5872 5872 5872 5872 5871 5870 5870 5869 5868 5867 5865 5864 5862 5861 5859 5857 5855 5853 5851 5849 5847 5845 5844 5842 5840
5845 5848 5850 5853 5854 5855 5857 5859 5859 5860 5861 5862 5863 5865 5864 5864 5865 5865 5865 5865 5865 5865 5864 5863 5863 5862 5862 5861 5860 5859 5857 5856 5854 5852 5850 5848 5846 5844 5842 5840 5838 5836 5834 5832
5837 5839 5842 5844 5846 5847 5852 5850 5851 5852 5853 5853 5854 5855 5856 5856 5857 5856 5857 5857 5857 5857 5856 5856 5855 5855 5854 5853 5852 5851 5849 5848 5846 5844 5843 5840 5838 5836 5834 5832 5830 5827 5825 5824
5829 5831 5834 5836 5837 5839 5841 5841 5843 5843 5844 5845 5845 5845 5846 5847 5847 5847 5847 5847 5848 5848 5848 5847 5847 5846 5845 5845 5843 5842 5841 5839 5838 5836 5834 5832 5830 5828 5826 5823 5821 5819 5817 5815
5821 5823 5826 5827 5829 5831 5833 5832 5834 5836 5835 5836 5836 5836 5836 5837 5837 5838 5838 5838 5838 5838 5838 5838 5837 5837 5836 5835 5834 5833 5832 5830 5829 5827 5826 5823 5821 5819 5817 5815 5813 5810 5808 5807
5813 5814 5816 5818 5819 5822 5823 5824 5826 5828 5827 5827 5827 5827 5827 5826 5827 5827 5827 5827 5828 5828 5827 5827 5827 5827 5826 5825 5824 5823 5822 5821 5819 5818 5816 5814 5812 5810 5808 5806 5804 5802 5800 5798
5804 5806 5808 5809 5811 5814 5813 5814 5816 5816 5816 5816 5816 5817 5817 5816 5816 5816 5817 5817 5817 5817 5817 5816 5816 5815 5815 5814 5814 5813 5812 5811 5809 5808 5807 5805 5803 5801 5799 5798 5796 5793 5791 5789
5795 5797 5798 5801 5803 5803 5804 5804 5805 5806 5806 5806 5806 5807 5806 5806 5806 5806 5806 5806 5806 5806 5806 5805 5805 5804 5804 5803 5802 5802 5802 5801 5799 5798 5796 5795 5793 5791 5790 5788 5786 5784 5782 5781
5785 5787 5789 5790 5792 5793 5794 5794 5795 5795 5796 5796 5796 5796 5796 5796 5796 5796 5795 5795 5795 5795 5795 5795 5795 5794 5794 5793 5792 5792 5791 5790 5789 5788 5786 5784 5783 5781 5780 5778 5776 5775 5773 5771
5776 5778 5779 5780 5782 5783 5784 5785 5785 5785 5785 5785 5785 5785 5785 5786 5785 5785 5785 5785 5784 5784 5784 5784 5784 5784 5784 5783 5782 5782 5781 5780 5778 5777 5776 5774 5772 5771 5769 5768 5766 5764 5763 5762
5768 5769 5770 5771 5772 5773 5774 5774 5774 5775 5775 5775 5775 5775 5775 5775 5775 5775 5775 5774 5774 5774 5774 5774 5774 5774 5774 5773 5772 5771 5770 5769 5768 5766 5764 5763 5761 5760 5759 5757 5756 5754 5753 5751